User: anonymous   Login
Location: Unspecified
(0.0000°N, 0.0000°E)
Time: 08:08:32
(UTC+00:00)
Language:

POPSAT HIP 1 - Orbit

View from above orbital plane
View from above orbital plane
View from above satellite
View from above satellite

Ground track
Ground track

The orbit data is extracted from the following two-line orbital elements,

1 40028U 14033U   19321.09042181  .00000521  00000-0  61623-4 0  9996
2 40028  97.9123 241.1299 0012541 283.8504  76.1340 14.88855151293829
Epoch (UTC): 17 November 2019 02:10:12
Eccentricity: 0.0012541
inclination: 97.9123°
perigee height: 593 km
apogee height: 610 km
right ascension of ascending node: 241.1299°
argument of perigee: 283.8504°
revolutions per day: 14.88855151
mean anomaly at epoch: 76.1340°
orbit number at epoch: 29382

The dashed part of the orbit path shows where the satellite is in the earth's shadow,  

DLR